Powrót do katalogu

DELTA 1 DEB

AktywnySSO
NORAD 7056·DEBRIS·🇺🇸 United States

Wystrzelony Nov 6, 1973 z Vandenberg Space Force Base

Loading…

Następne Przeloty (najbliższe 24 godziny)

TLE

ŚwieżeSource: Space-Track

Epoka: Sep 14, 2026, 12:07 UTC

1 07056U 73086AY  26257.50549647 -.00000035  00000-0  10841-3 0  9990
2 07056 102.7330 265.0773 0087707  22.3342 132.1877 12.24190461361055

Śledź DELTA 1 DEB w czasie rzeczywistym z AllMySat

Download on the App Store